Location: Ferchesar
(52.6477°N, 12.4298°E)
Time: 00:52:59
(UTC+01:00)

Transit 4A - Pass Details

Date: 10 December 2021
Orbit: 864 x 981 km, 66.8° (Epoch: 19 January)

Event Time Altitude Azimuth Distance (km) Brightness Sun altitude
Rises 16:46:37 0° 165° (SSE) 3,461 11.1 -7.3°
Reaches altitude 10° 16:49:47 10° 148° (SSE) 2,544 10.2 -7.7°
Maximum altitude 16:53:45 19° 105° (ESE) 2,005 9.3 -8.2°
Enters shadow 16:57:36 11° 64° (ENE) 2,557 9.5 -8.8°
